Back to catalog

STARLINK-32602

AliveCommunicationsVLEO
NORAD 62181·PAYLOAD·🇺🇸 United States

Launched Nov 30, 2024 from Vandenberg Space Force Base

Loading…

Next Passes (next 24 hours)

TLE

FreshSource: CelesTrak SupGP

Epoch: Sep 14, 2026, 14:17 UTC

1 62181C 24225U   26257.59562500 -.00038679  00000+0 -13457-2 0  2570
2 62181  70.0018  36.4957 0003479 272.3605  59.1985 15.29592427    12

Track STARLINK-32602 in real time with AllMySat

Download on the App Store